TimeEDT,TemperatureF,Dew PointF,Humidity,Sea Level PressureIn,VisibilityMPH,Wind Direction,Wind SpeedMPH,Gust SpeedMPH,PrecipitationIn,Events,Conditions,WindDirDegrees,DateUTC
12:53 AM,78.1,75.0,90,29.92,10.0,NW,3.5,-,0.00,,Clear,320,2013-09-25 04:53:00
1:53 AM,77.0,75.0,94,29.90,10.0,Calm,Calm,-,N/A,,Clear,0,2013-09-25 05:53:00
2:53 AM,77.0,75.0,94,29.88,10.0,South,3.5,-,N/A,,Clear,180,2013-09-25 06:53:00
3:53 AM,77.0,75.0,94,29.86,10.0,South,3.5,-,N/A,,Clear,190,2013-09-25 07:53:00
4:53 AM,77.0,73.9,90,29.86,10.0,South,3.5,-,N/A,,Clear,180,2013-09-25 08:53:00
5:53 AM,77.0,75.0,94,29.87,10.0,South,3.5,-,N/A,,Clear,190,2013-09-25 09:53:00
6:53 AM,77.0,75.0,94,29.88,10.0,Calm,Calm,-,N/A,,Clear,0,2013-09-25 10:53:00
7:53 AM,78.1,75.9,93,29.89,10.0,Calm,Calm,-,N/A,,Clear,0,2013-09-25 11:53:00
8:53 AM,82.9,79.0,88,29.89,10.0,SW,5.8,-,N/A,,Clear,230,2013-09-25 12:53:00
9:53 AM,86.0,79.0,79,29.91,10.0,WSW,8.1,-,N/A,,Partly Cloudy,240,2013-09-25 13:53:00
10:53 AM,88.0,77.0,70,29.91,10.0,WSW,8.1,-,N/A,,Scattered Clouds,250,2013-09-25 14:53:00
11:53 AM,89.1,75.9,65,29.90,10.0,West,12.7,-,N/A,,Partly Cloudy,260,2013-09-25 15:53:00
12:53 PM,91.9,75.9,59,29.89,10.0,West,8.1,19.6,N/A,,Scattered Clouds,260,2013-09-25 16:53:00
1:33 PM,87.8,75.2,66,29.87,10.0,NW,17.3,-,N/A,,Mostly Cloudy,310,2013-09-25 17:33:00
1:53 PM,89.1,75.0,63,29.86,10.0,NW,13.8,-,N/A,,Partly Cloudy,310,2013-09-25 17:53:00
2:53 PM,91.9,75.9,59,29.85,10.0,WNW,15.0,23.0,N/A,,Clear,290,2013-09-25 18:53:00
3:34 PM,78.8,75.2,89,29.87,7.0,NNW,20.7,40.3,0.01,Rain,Light Rain,340,2013-09-25 19:34:00
3:53 PM,81.0,75.0,82,29.88,10.0,North,9.2,-,0.01,Rain,Light Rain,350,2013-09-25 19:53:00
4:53 PM,86.0,75.9,72,29.85,5.0,NW,12.7,-,0.07,,Haze,320,2013-09-25 20:53:00
5:53 PM,87.1,77.0,72,29.85,10.0,WNW,5.8,-,N/A,,Clear,290,2013-09-25 21:53:00
6:53 PM,84.9,75.9,74,29.83,10.0,SW,6.9,-,N/A,,Clear,220,2013-09-25 22:53:00
7:53 PM,81.0,75.9,85,29.85,10.0,West,3.5,-,N/A,,Clear,260,2013-09-25 23:53:00
8:53 PM,81.0,75.9,85,29.85,10.0,Calm,Calm,-,N/A,,Clear,0,2013-09-26 00:53:00
9:53 PM,79.0,75.9,90,29.88,10.0,Calm,Calm,-,N/A,,Clear,0,2013-09-26 01:53:00
10:53 PM,79.0,77.0,94,29.88,10.0,Calm,Calm,-,N/A,,Clear,0,2013-09-26 02:53:00
11:53 PM,79.0,77.0,94,29.88,10.0,West,4.6,-,N/A,,Clear,270,2013-09-26 03:53:00